When you browse on this site, cookies collect data to enhance your experience and personalize the content and advertising you see.
Visit our Privacy Policy to learn more. By continuing to use the site, you agree to this use of cookies and data.
  • In Portugal
  • List of Countries
  • For 7 days
  • Water Temperature
  • Weather Map
  • Weather Widgets
  • user-avatar
    Login

    Hourly Weather Maloe Maksimkino

    Today, 21 August, Wednesday

    Time Temperature Precipitation Wind Pressure Humidity
    00:00 +18°C° 0 mm 2 mps 758 mmHg 93%
    01:00 +18°C° 0 mm 2 mps 758 mmHg 94%
    02:00 +18°C° 0 mm 2 mps 758 mmHg 95%
    03:00 +17°C° 0 mm 2 mps 759 mmHg 96%
    04:00 +18°C° 0 mm 2 mps 759 mmHg 95%
    05:00 +18°C° 0 mm 2 mps 759 mmHg 94%
    06:00 +18°C° 0 mm 2 mps 759 mmHg 93%
    07:00 +20°C° 0 mm 3 mps 759 mmHg 87%
    08:00 +21°C° 0 mm 3 mps 759 mmHg 81%
    09:00 +24°C° 0 mm 3 mps 759 mmHg 75%
    10:00 +24°C° 0 mm 3 mps 759 mmHg 71%
    11:00 +25°C° 0 mm 3 mps 759 mmHg 68%
    12:00 +26°C° 0 mm 4 mps 759 mmHg 65%
    13:00 +26°C° 0 mm 4 mps 759 mmHg 66%
    14:00 +26°C° 0 mm 4 mps 759 mmHg 66%
    15:00 +26°C° 0 mm 4 mps 759 mmHg 67%
    16:00 +25°C° 0 mm 3 mps 759 mmHg 71%
    17:00 +25°C° 0 mm 2 mps 759 mmHg 76%
    18:00 +24°C° 0 mm 2 mps 759 mmHg 81%
    19:00 +23°C° 0 mm 2 mps 759 mmHg 85%
    20:00 +21°C° 0 mm 1 mps 759 mmHg 88%
    21:00 +20°C° 0 mm 1 mps 759 mmHg 92%
    22:00 +20°C° 0 mm 1 mps 759 mmHg 92%
    23:00 +19°C° 0 mm 1 mps 759 mmHg 93%

    Tomorrow, 22 August, Thursday

    Time Temperature Precipitation Wind Pressure Humidity
    00:00 +19°C° 0 mm 1 mps 759 mmHg 93%
    01:00 +18°C° 0 mm 1 mps 759 mmHg 94%
    02:00 +18°C° 0 mm 1 mps 760 mmHg 94%
    03:00 +18°C° 0 mm 1 mps 760 mmHg 94%
    04:00 +18°C° 0 mm 1 mps 760 mmHg 93%
    05:00 +18°C° 0 mm 1 mps 760 mmHg 92%
    06:00 +19°C° 0 mm 1 mps 759 mmHg 91%
    07:00 +20°C° 0 mm 1 mps 760 mmHg 84%
    08:00 +22°C° 0 mm 1 mps 760 mmHg 78%
    09:00 +23°C° 0 mm 1 mps 760 mmHg 71%
    10:00 +24°C° 0 mm 1 mps 759 mmHg 67%
    11:00 +25°C° 0 mm 1 mps 759 mmHg 63%
    12:00 +27°C° 0 mm 1 mps 759 mmHg 59%
    13:00 +25°C° 0 mm 0 mps 759 mmHg 58%
    14:00 +25°C° 0 mm 0 mps 759 mmHg 56%
    15:00 +25°C° 0 mm 0 mps 759 mmHg 55%
    16:00 +24°C° 0 mm 0 mps 759 mmHg 60%
    17:00 +23°C° 0 mm 0 mps 758 mmHg 66%
    18:00 +22°C° 0 mm 0 mps 758 mmHg 71%
    19:00 +21°C° 0 mm 0 mps 758 mmHg 74%
    20:00 +20°C° 0 mm 0 mps 758 mmHg 76%
    21:00 +19°C° 0 mm 0 mps 758 mmHg 79%
    22:00 +21°C° 0 mm 1 mps 758 mmHg 80%
    23:00 +20°C° 0 mm 1 mps 758 mmHg 81%

    Day after tomorrow, 23 August, Friday

    Time Temperature Precipitation Wind Pressure Humidity
    00:00 +20°C° 0 mm 1 mps 758 mmHg 82%
    01:00 +20°C° 0 mm 1 mps 758 mmHg 84%
    02:00 +19°C° 0 mm 1 mps 758 mmHg 85%
    03:00 +19°C° 0 mm 1 mps 758 mmHg 87%
    04:00 +19°C° 0 mm 1 mps 758 mmHg 86%
    05:00 +20°C° 0 mm 1 mps 758 mmHg 85%
    06:00 +20°C° 0 mm 1 mps 758 mmHg 84%
    07:00 +22°C° 0 mm 1 mps 758 mmHg 80%
    08:00 +23°C° 0 mm 2 mps 758 mmHg 75%
    09:00 +25°C° 0 mm 2 mps 759 mmHg 70%
    10:00 +25°C° 0.3 mm 2 mps 758 mmHg 72%
    11:00 +25°C° 0.3 mm 3 mps 758 mmHg 74%
    12:00 +26°C° 0.3 mm 3 mps 758 mmHg 76%
    13:00 +25°C° 0.3 mm 3 mps 759 mmHg 76%
    14:00 +25°C° 0.3 mm 4 mps 759 mmHg 76%
    15:00 +23°C° 0.3 mm 4 mps 759 mmHg 77%
    16:00 +22°C° 0 mm 3 mps 759 mmHg 77%
    17:00 +21°C° 0 mm 3 mps 759 mmHg 78%
    18:00 +20°C° 0 mm 2 mps 759 mmHg 78%
    19:00 +19°C° 0 mm 2 mps 759 mmHg 80%
    20:00 +18°C° 0 mm 2 mps 759 mmHg 81%
    21:00 +17°C° 0 mm 2 mps 760 mmHg 83%
    22:00 +16°C° 0 mm 2 mps 760 mmHg 83%
    23:00 +16°C° 0 mm 2 mps 760 mmHg 84%

    24 August, Saturday

    Time Temperature Precipitation Wind Pressure Humidity
    00:00 +15°C° 0 mm 2 mps 760 mmHg 84%
    01:00 +15°C° 0 mm 2 mps 760 mmHg 85%
    02:00 +14°C° 0 mm 2 mps 760 mmHg 86%
    03:00 +14°C° 0 mm 1 mps 760 mmHg 87%
    04:00 +14°C° 0 mm 1 mps 760 mmHg 87%
    05:00 +15°C° 0 mm 1 mps 761 mmHg 86%
    06:00 +15°C° 0 mm 1 mps 761 mmHg 85%
    07:00 +18°C° 0 mm 1 mps 761 mmHg 79%
    08:00 +18°C° 0 mm 2 mps 761 mmHg 72%
    09:00 +20°C° 0 mm 2 mps 761 mmHg 65%
    10:00 +21°C° 0 mm 2 mps 761 mmHg 60%
    11:00 +23°C° 0 mm 2 mps 761 mmHg 56%
    12:00 +24°C° 0 mm 2 mps 761 mmHg 51%
    13:00 +24°C° 0 mm 2 mps 761 mmHg 51%
    14:00 +24°C° 0 mm 2 mps 760 mmHg 51%
    15:00 +24°C° 0 mm 3 mps 760 mmHg 51%
    16:00 +23°C° 0 mm 2 mps 760 mmHg 58%
    17:00 +21°C° 0 mm 2 mps 760 mmHg 64%
    18:00 +19°C° 0 mm 2 mps 760 mmHg 70%
    19:00 +19°C° 0 mm 1 mps 760 mmHg 72%
    20:00 +18°C° 0 mm 1 mps 760 mmHg 75%
    21:00 +15°C° 0 mm 0 mps 760 mmHg 77%
    22:00 +14°C° 0 mm 0 mps 760 mmHg 79%
    23:00 +14°C° 0 mm 0 mps 760 mmHg 80%

    25 August, Sunday

    Time Temperature Precipitation Wind Pressure Humidity
    00:00 +14°C° 0 mm 0 mps 760 mmHg 81%
    01:00 +13°C° 0 mm 0 mps 759 mmHg 82%
    02:00 +13°C° 0 mm 0 mps 759 mmHg 83%
    03:00 +13°C° 0 mm 0 mps 759 mmHg 84%
    04:00 +14°C° 0 mm 1 mps 759 mmHg 83%
    05:00 +15°C° 0 mm 1 mps 759 mmHg 82%
    06:00 +15°C° 0 mm 1 mps 759 mmHg 82%
    07:00 +17°C° 0 mm 2 mps 758 mmHg 76%
    08:00 +19°C° 0 mm 2 mps 758 mmHg 70%
    09:00 +20°C° 0 mm 3 mps 758 mmHg 64%
    10:00 +21°C° 0 mm 3 mps 758 mmHg 60%
    11:00 +22°C° 0 mm 3 mps 757 mmHg 56%
    12:00 +24°C° 0 mm 3 mps 757 mmHg 52%
    13:00 +25°C° 0 mm 4 mps 756 mmHg 53%
    14:00 +25°C° 0 mm 4 mps 756 mmHg 53%
    15:00 +25°C° 0 mm 4 mps 756 mmHg 54%
    16:00 +23°C° 0 mm 4 mps 755 mmHg 60%
    17:00 +21°C° 0 mm 3 mps 755 mmHg 65%
    18:00 +20°C° 0 mm 2 mps 755 mmHg 71%
    19:00 +19°C° 0.1 mm 3 mps 755 mmHg 77%
    20:00 +18°C° 0.1 mm 3 mps 755 mmHg 82%
    21:00 +16°C° 0.1 mm 3 mps 755 mmHg 87%
    22:00 +16°C° 0 mm 3 mps 755 mmHg 88%
    23:00 +16°C° 0 mm 3 mps 755 mmHg 89%

    26 August, Monday

    Time Temperature Precipitation Wind Pressure Humidity
    00:00 +15°C° 0 mm 2 mps 755 mmHg 89%
    01:00 +14°C° 0 mm 3 mps 755 mmHg 90%
    02:00 +14°C° 0 mm 3 mps 755 mmHg 90%
    03:00 +14°C° 0 mm 4 mps 755 mmHg 90%
    04:00 +13°C° 0 mm 4 mps 755 mmHg 89%
    05:00 +12°C° 0 mm 4 mps 756 mmHg 88%
    06:00 +12°C° 0 mm 5 mps 756 mmHg 86%
    07:00 +12°C° 0 mm 5 mps 756 mmHg 83%
    08:00 +12°C° 0 mm 5 mps 757 mmHg 79%
    09:00 +12°C° 0 mm 5 mps 757 mmHg 75%
    10:00 +12°C° 0 mm 5 mps 758 mmHg 75%
    11:00 +12°C° 0 mm 5 mps 758 mmHg 74%
    12:00 +11°C° 0 mm 6 mps 758 mmHg 73%
    13:00 +11°C° 0.1 mm 6 mps 759 mmHg 72%
    14:00 +11°C° 0.1 mm 6 mps 759 mmHg 70%
    15:00 +13°C° 0.1 mm 6 mps 759 mmHg 69%
    16:00 +11°C° 0.1 mm 6 mps 759 mmHg 69%
    17:00 +11°C° 0.1 mm 6 mps 759 mmHg 70%
    18:00 +10°C° 0.1 mm 5 mps 759 mmHg 70%
    19:00 +10°C° 0 mm 4 mps 760 mmHg 72%
    20:00 +8°C° 0 mm 4 mps 760 mmHg 73%
    21:00 +7°C° 0 mm 3 mps 760 mmHg 74%
    22:00 +7°C° 0 mm 3 mps 760 mmHg 76%
    23:00 +7°C° 0 mm 3 mps 761 mmHg 78%
    Show more